Location: Gu�tanj
(46.5431°N, 14.9692°E)
Time: 12:54:22
(UTC+00:00)

Cosmos 2322 - Pass Details

Date: 03 March 2021
Orbit: 842 x 853 km, 71.0° (Epoch: 19 April)

Event Time Altitude Azimuth Distance (km) Brightness Sun altitude
Rises 18:00:58 0° 176° (S) 3,407 6.8 -13.2°
Reaches altitude 10° 18:03:37 10° 167° (SSE) 2,476 6.0 -13.6°
Maximum altitude 18:08:38 33° 105° (ESE) 1,400 4.3 -14.5°
Drops below altitude 10° 18:13:40 10° 43° (NE) 2,489 5.8 -15.3°
Sets 18:16:20 0° 34° (NE) 3,429 6.6 -15.8°
